Nampa, ID

11:54 PM MST on February 13, 2016 (GMT -0700)
Nampa

Weather History for KMAN - November, 2012

Change the Weather History Date:

Wednesday, November 7, 2012

  Actual Average (KBOI) Record (KBOI)
Temperature  
Mean Temperature 46 °F 44 °F  
Max Temperature 57 °F 53 °F 76 °F (1999)
Min Temperature 35 °F 35 °F 16 °F (1895)
Degree Days  
Heating Degree Days 19 21  
Month to date heating degree days 140  
Since 1 July heating degree days 646  
Cooling Degree Days 0 0  
Month to date cooling degree days 0  
Year to date cooling degree days 942  
Moisture  
Dew Point 38 °F    
Average Humidity 71    
Maximum Humidity 100    
Minimum Humidity 48    
Precipitation  
Precipitation 0.00 in 0.04 in 0.47 in (2010)
Month to date precipitation 0.27  
Year to date precipitation 9.10  
Snow  
Snow 0.00 in 0.10 in 3.20 in (1986)
Month to date snowfall 0.2  
Since 1 July snowfall 0.3  
Snow Depth -    
Sea Level Pressure  
Sea Level Pressure 29.98 in    
Wind  
Wind Speed 4 mph (WNW)    
Max Wind Speed 13 mph    
Max Gust Speed 18 mph    
Visibility 10 miles    
Events      
T = Trace of Precipitation, MM = Missing Value Source: NWS Daily Summary

Daily Weather History Graph

Daily Weather History Graph

Search for Another Location

Airport or City:

Trip Planner

Search our weather history database for the weather conditions in past years. The results will help you decide how hot, cold, wet, or windy it might be!

Date:

Astronomy

Nov. 07, 2012 Rise Set
Actual Time 7:30 AM MST 5:28 PM MST
Civil Twilight 6:59 AM MST 5:59 PM MST
Nautical Twilight 6:25 AM MST 6:33 PM MST
Astronomical Twilight 5:52 AM MST 7:06 PM MST
Moon 12:16 AM MST (11/7) 1:51 PM MST (11/7)
Length of Visible Light 10h 59m
Length of Day
9h 58m
Last Quarter, 42% of the Moon is Illuminated
Nov 7
Last Quarter
Nov 13
New
Nov 20
First Quarter
Nov 28
Full
Dec 6
Last Quarter

Hourly Weather History & Observations

Time (MST) Temp. Windchill Dew Point Humidity Pressure Visibility Wind Dir Wind Speed Gust Speed Precip Events Conditions
12:15 AM 41.0 °F - 41.0 °F 100% 30.03 in 8.0 mi Calm Calm - N/A   Clear
12:35 AM 41.0 °F - 41.0 °F 100% 30.04 in 7.0 mi Calm Calm - N/A   Clear
12:55 AM 39.2 °F - 39.2 °F 100% 30.04 in 10.0 mi Calm Calm - N/A   Clear
1:15 AM 39.2 °F - 39.2 °F 100% 30.03 in 9.0 mi Calm Calm - N/A   Clear
1:35 AM 37.4 °F - 37.4 °F 100% 30.04 in 10.0 mi Calm Calm - N/A   Clear
1:55 AM 39.2 °F - 39.2 °F 100% 30.03 in 9.0 mi Calm Calm - N/A   Clear
2:15 AM 35.6 °F - 35.6 °F 100% 30.03 in 10.0 mi Calm Calm - N/A   Clear
2:35 AM 35.6 °F 32.8 °F 35.6 °F 100% 30.03 in 10.0 mi South 3.5 mph - N/A   Clear
2:55 AM 37.4 °F 34.9 °F 37.4 °F 100% 30.03 in 10.0 mi SE 3.5 mph - N/A   Clear
3:15 AM 37.4 °F - 37.4 °F 100% 30.03 in 10.0 mi Calm Calm - N/A   Clear
3:35 AM 37.4 °F - 37.4 °F 100% 30.03 in 10.0 mi Calm Calm - N/A   Clear
3:55 AM 37.4 °F 34.9 °F 37.4 °F 100% 30.02 in 10.0 mi ESE 3.5 mph - N/A   Clear
4:15 AM 35.6 °F 32.8 °F 35.6 °F 100% 30.01 in 10.0 mi SE 3.5 mph - N/A   Clear
4:35 AM 35.6 °F 31.7 °F 35.6 °F 100% 30.01 in 10.0 mi SE 4.6 mph - N/A   Clear
5:15 AM 41.0 °F 35.8 °F 37.4 °F 87% 30.01 in 10.0 mi ESE 8.1 mph - N/A   Clear
5:35 AM 44.6 °F 42.2 °F 37.4 °F 76% 30.01 in 10.0 mi SE 4.6 mph - N/A   Clear
5:55 AM 41.0 °F 36.4 °F 37.4 °F 87% 30.00 in 10.0 mi SE 6.9 mph - N/A   Clear
6:15 AM 41.0 °F 37.1 °F 37.4 °F 87% 30.00 in 10.0 mi SE 5.8 mph - N/A   Clear
6:35 AM 41.0 °F 39.0 °F 37.4 °F 87% 30.00 in 10.0 mi SE 3.5 mph - N/A   Clear
6:55 AM 41.0 °F 39.0 °F 37.4 °F 87% 30.00 in 10.0 mi SE 3.5 mph - N/A   Clear
7:15 AM 41.0 °F 38.0 °F 37.4 °F 87% 30.00 in 10.0 mi SSE 4.6 mph - N/A   Clear
7:35 AM 39.2 °F - 37.4 °F 93% 30.01 in 10.0 mi Calm Calm - N/A   Clear
7:55 AM 41.0 °F 38.0 °F 37.4 °F 87% 30.01 in 10.0 mi SSE 4.6 mph - N/A   Clear
8:15 AM 41.0 °F 37.1 °F 39.2 °F 93% 30.01 in 10.0 mi SE 5.8 mph - N/A   Clear
8:35 AM 44.6 °F 41.4 °F 39.2 °F 81% 30.01 in 10.0 mi SE 5.8 mph - N/A   Clear
8:55 AM 46.4 °F 44.3 °F 41.0 °F 81% 30.00 in 10.0 mi SSE 4.6 mph - N/A   Partly Cloudy
9:15 AM 50.0 °F - 39.2 °F 66% 30.01 in 10.0 mi Calm Calm - N/A   Scattered Clouds
9:35 AM 53.6 °F - 39.2 °F 58% 30.01 in 10.0 mi SSW 3.5 mph - N/A   Mostly Cloudy
9:55 AM 55.4 °F - 37.4 °F 51% 30.01 in 10.0 mi Calm Calm - N/A   Mostly Cloudy
10:15 AM 57.2 °F - 37.4 °F 48% 30.01 in 10.0 mi SSW 3.5 mph - N/A   Mostly Cloudy
10:35 AM 57.2 °F - 37.4 °F 48% 30.01 in 10.0 mi Calm Calm - N/A   Overcast
10:55 AM 57.2 °F - 37.4 °F 48% 30.00 in 10.0 mi Calm Calm - N/A   Overcast
11:15 AM 57.2 °F - 39.2 °F 51% 29.99 in 10.0 mi WSW 3.5 mph - N/A   Overcast
11:35 AM 57.2 °F - 39.2 °F 51% 29.99 in 10.0 mi Calm Calm - N/A   Overcast
11:55 AM 57.2 °F - 39.2 °F 51% 29.98 in 10.0 mi WNW 3.5 mph - N/A   Mostly Cloudy
12:15 PM 57.2 °F - 39.2 °F 51% 29.97 in 10.0 mi Calm Calm - N/A   Mostly Cloudy
12:35 PM 57.2 °F - 41.0 °F 55% 29.98 in 10.0 mi NNW 10.4 mph - N/A   Overcast
12:55 PM 53.6 °F - 42.8 °F 67% 29.97 in 10.0 mi NNW 8.1 mph - N/A   Overcast
1:15 PM 53.6 °F - 41.0 °F 62% 29.97 in 10.0 mi NNW 6.9 mph - N/A   Overcast
1:35 PM 55.4 °F - 42.8 °F 63% 29.96 in 10.0 mi North 9.2 mph - N/A   Mostly Cloudy
1:55 PM 57.2 °F - 41.0 °F 55% 29.95 in 10.0 mi North 6.9 mph - N/A   Partly Cloudy
2:15 PM 57.2 °F - 41.0 °F 55% 29.95 in 10.0 mi North 6.9 mph - N/A   Clear
2:35 PM 57.2 °F - 41.0 °F 55% 29.95 in 10.0 mi NNW 10.4 mph - N/A   Scattered Clouds
2:55 PM 57.2 °F - 41.0 °F 55% 29.95 in 10.0 mi NNW 10.4 mph - N/A   Mostly Cloudy
3:15 PM 55.4 °F - 41.0 °F 58% 29.95 in 10.0 mi NNW 10.4 mph - N/A   Mostly Cloudy
3:35 PM 55.4 °F - 41.0 °F 58% 29.95 in 10.0 mi NNW 8.1 mph - N/A   Partly Cloudy
3:55 PM 55.4 °F - 41.0 °F 58% 29.95 in 10.0 mi NNW 9.2 mph - N/A   Scattered Clouds
4:15 PM 53.6 °F - 41.0 °F 62% 29.95 in 10.0 mi NW 9.2 mph - N/A   Overcast
4:35 PM 53.6 °F - 41.0 °F 62% 29.95 in 10.0 mi NW 9.2 mph - N/A   Mostly Cloudy
4:55 PM 53.6 °F - 41.0 °F 62% 29.95 in 10.0 mi WNW 8.1 mph - N/A   Mostly Cloudy
5:15 PM 53.6 °F - 37.4 °F 54% 29.95 in 10.0 mi NW 10.4 mph 18.4 mph N/A   Scattered Clouds
5:35 PM 53.6 °F - 37.4 °F 54% 29.94 in 10.0 mi NW 8.1 mph - N/A   Partly Cloudy
5:55 PM 53.6 °F - 35.6 °F 51% 29.94 in 10.0 mi NW 9.2 mph - N/A   Scattered Clouds
6:15 PM 51.8 °F - 35.6 °F 54% 29.94 in 10.0 mi WNW 11.5 mph 16.1 mph N/A   Mostly Cloudy
6:35 PM 50.0 °F - 35.6 °F 58% 29.94 in 10.0 mi West 10.4 mph - N/A   Overcast
6:55 PM 50.0 °F - 35.6 °F 58% 29.94 in 10.0 mi West 9.2 mph - N/A   Scattered Clouds
7:15 PM 48.2 °F - 35.6 °F 62% 29.94 in 10.0 mi WNW 10.4 mph - N/A   Mostly Cloudy
7:35 PM 48.2 °F - 35.6 °F 62% 29.94 in 10.0 mi WNW 11.5 mph - N/A   Overcast
7:55 PM 48.2 °F - 33.8 °F 58% 29.94 in 10.0 mi WNW 10.4 mph - N/A   Mostly Cloudy
8:15 PM 46.4 °F 41.5 °F 33.8 °F 62% 29.93 in 10.0 mi WNW 10.4 mph - N/A   Partly Cloudy
8:35 PM 46.4 °F 42.4 °F 33.8 °F 62% 29.93 in 10.0 mi WNW 8.1 mph - N/A   Scattered Clouds
8:55 PM 44.6 °F 40.2 °F 32.0 °F 61% 29.93 in 10.0 mi West 8.1 mph - N/A   Mostly Cloudy
9:15 PM 44.6 °F 40.2 °F 32.0 °F 61% 29.93 in 10.0 mi West 8.1 mph - N/A   Scattered Clouds
9:35 PM 44.6 °F 39.7 °F 32.0 °F 61% 29.92 in 10.0 mi West 9.2 mph - N/A   Partly Cloudy
9:55 PM 44.6 °F 39.7 °F 32.0 °F 61% 29.92 in 10.0 mi West 9.2 mph - N/A   Mostly Cloudy
10:15 PM 44.6 °F 39.2 °F 32.0 °F 61% 29.92 in 10.0 mi West 10.4 mph - N/A   Overcast
10:55 PM 44.6 °F 39.7 °F 32.0 °F 61% 29.90 in 10.0 mi WNW 9.2 mph - N/A   Overcast
11:15 PM 44.6 °F 38.4 °F 32.0 °F 61% 29.89 in 10.0 mi WNW 12.7 mph - N/A   Overcast
11:35 PM 44.6 °F 40.7 °F 30.2 °F 57% 29.89 in 10.0 mi West 6.9 mph - N/A   Overcast